TimePDT,TemperatureF,Dew PointF,Humidity,Sea Level PressureIn,VisibilityMPH,Wind Direction,Wind SpeedMPH,Gust SpeedMPH,PrecipitationIn,Events,Conditions,WindDirDegrees,DateUTC
12:53 AM,80.1,37.0,21,29.77,10.0,West,10.4,-,N/A,,Clear,270,2013-06-17 07:53:00
1:53 AM,75.9,37.9,25,29.77,10.0,West,9.2,-,N/A,,Clear,280,2013-06-17 08:53:00
2:53 AM,72.0,37.9,29,29.77,10.0,West,6.9,-,N/A,,Clear,260,2013-06-17 09:53:00
3:53 AM,72.0,36.0,27,29.77,10.0,West,4.6,-,N/A,,Clear,270,2013-06-17 10:53:00
4:53 AM,71.1,36.0,28,29.78,10.0,North,3.5,-,N/A,,Clear,360,2013-06-17 11:53:00
5:53 AM,70.0,33.1,26,29.78,10.0,WSW,9.2,-,N/A,,Clear,250,2013-06-17 12:53:00
6:53 AM,73.0,41.0,31,29.80,10.0,SW,3.5,-,N/A,,Clear,230,2013-06-17 13:53:00
7:53 AM,81.0,37.0,21,29.81,10.0,WSW,3.5,-,N/A,,Clear,240,2013-06-17 14:53:00
8:53 AM,87.1,36.0,16,29.83,10.0,Calm,Calm,-,N/A,,Clear,0,2013-06-17 15:53:00
9:53 AM,91.0,39.0,16,29.82,10.0,Calm,Calm,-,N/A,,Clear,0,2013-06-17 16:53:00
10:53 AM,95.0,37.9,14,29.82,10.0,Calm,Calm,-,N/A,,Clear,0,2013-06-17 17:53:00
11:53 AM,100.0,33.1,10,29.81,10.0,Calm,Calm,-,N/A,,Clear,0,2013-06-17 18:53:00
12:53 PM,100.9,34.0,10,29.79,10.0,Variable,3.5,-,N/A,,Clear,0,2013-06-17 19:53:00
1:53 PM,102.9,18.0,5,29.76,10.0,South,4.6,-,N/A,,Clear,190,2013-06-17 20:53:00
2:53 PM,106.0,25.0,6,29.74,10.0,ENE,9.2,-,N/A,,Clear,70,2013-06-17 21:53:00
3:53 PM,106.0,23.0,5,29.71,10.0,ENE,8.1,-,N/A,,Clear,70,2013-06-17 22:53:00
4:53 PM,106.0,24.1,6,29.69,10.0,East,6.9,-,N/A,,Partly Cloudy,80,2013-06-17 23:53:00
5:53 PM,106.0,23.0,5,29.68,10.0,NE,3.5,-,N/A,,Clear,40,2013-06-18 00:53:00
6:53 PM,100.9,32.0,9,29.68,10.0,SW,9.2,-,N/A,,Clear,230,2013-06-18 01:53:00
7:53 PM,93.0,37.0,14,29.69,3.0,WSW,10.4,-,N/A,,Haze,240,2013-06-18 02:53:00
8:53 PM,89.1,34.0,14,29.70,8.0,WSW,6.9,-,N/A,,Clear,250,2013-06-18 03:53:00
9:53 PM,82.9,36.0,19,29.71,10.0,West,8.1,-,N/A,,Clear,260,2013-06-18 04:53:00
10:53 PM,82.9,35.1,18,29.72,10.0,SW,10.4,-,N/A,,Clear,220,2013-06-18 05:53:00
11:53 PM,79.0,37.0,22,29.71,10.0,WNW,3.5,-,N/A,,Clear,290,2013-06-18 06:53:00